Regional Weather Roundup
Issued by NWS

Home | Current Version | Previous Version | Text Only | Print | Product List | Glossary Off
Versions: 1 2 3 4 5 6 7 8 9 10 11 12 13 14 15 16 17 18 19 20 21 22 23 24 25 26 27 28 29 30 31 32 33 34 35 36 37 38 39 40 41 42 43 44 45 46 47 48 49 50

000
ASUS45 KSLC 251010
RWRUT

UTAH REGIONAL WEATHER ROUNDUP
NATIONAL WEATHER SERVICE SALT LAKE CITY UT
400 AM MDT THU AUG 25 2016

UTZ001>011-023>025-251100-

NORTHERN UTAH

CITY           SKY/WX    TMP DP  RH WIND       PRES   REMARKS
BRIGHAM CITY     N/A     59  29  32 NW5       30.12S
HILL AFB         N/A     56  24  28 E16G23    30.13S
LOGAN            N/A     49  34  56 CALM      30.16R
OGDEN            N/A     57  25  29 S9        30.11S
PROVO AIRPORT    N/A     52  27  37 CALM      30.12F
SALT LAKE CITY   N/A     62  32  32 S6        30.10S
VERNAL         CLEAR     53  29  39 VRB5      30.16S
WENDOVER         N/A     64  21  19 CALM      30.13R
HEBER CITY       N/A     41  28  60 E5        30.21S
WEST JORDAN      N/A     56  28  33 S6        30.13S

$$

UTZ012>022-026-027-251100-

SOUTHERN/CENTRAL UTAH

CITY           SKY/WX    TMP DP  RH WIND       PRES   REMARKS
BLANDING         N/A     56  41  58 NE6       30.29R
BRYCE CANYON     N/A     44  39  82 W7        30.31S
CEDAR CITY       N/A     53  41  63 CALM      30.14S
DELTA            N/A     57  19  23 N6        30.09S
MILFORD          N/A     53  35  50 S5        30.11R
MOAB/CYNLANDS    N/A     62  42  47 SE3       30.09F
PRICE            N/A     57  17  21 CALM      30.17F
ST GEORGE        N/A     75  46  35 E18G25    29.97R

$$

REGIONAL REPORTS     COLORADO/ARIZONA

CITY           SKY/WX    TMP DP  RH WIND       PRES   REMARKS
CRAIG, CO      CLEAR     44  38  79 CALM      30.24R
GRAND JUNCTION CLEAR     59  48  67 E13       30.14F
RIFLE          CLEAR     53  44  71 CALM      30.20R
MONTROSE       CLEAR     52  43  71 S6        30.24F
CORTEZ         CLOUDY    50  47  89 CALM      30.23S
PAGE, AZ         N/A     71  42  35 S5        30.09S
GRAND CANYON     N/A     48  41  76 CALM      30.27F
KINGMAN          N/A     75  50  41 SE12      30.03S
FLAGSTAFF        N/A     46  45  96 CALM      30.31F

$$

REGIONAL REPORTS    NEVADA/IDAHO/WYOMING

CITY           SKY/WX    TMP DP  RH WIND       PRES   REMARKS
LAS VEGAS, NV    N/A     86  34  15 S6        29.84S
ELY              N/A     43  17  35 S9        30.20S
ELKO             N/A     51  24  34 S3        30.15S
POCATELLO, ID  CLEAR     50  36  58 NE12      30.20R
EVANSTON, WY   CLOUDY    45  29  53 E6        30.28R
ROCK SPRINGS   NOT AVBL

$$



USA.gov is the U.S. government's official web portal to all federal, state and local government web resources and services.